Location: New Frontier Mobile Home Park
(32.8448°N, 116.9675°W)
Time: 20:17:00
(UTC+00:00)

ERS-1 - Pass Details

Date: 14 July 2020
Orbit: 741 x 790 km, 98.6° (Epoch: 13 August)

Event Time Altitude Azimuth Distance (km) Brightness Sun altitude
Rises 10:37:02 0° 11° (N) 3,233 8.7 -23.1°
Reaches altitude 10° 10:39:21 10° 10° (N) 2,296 7.7 -22.8°
Maximum altitude 10:44:24 78° 285° (WNW) 772 4.4 -22.0°
Enters shadow 10:45:38 52° 210° (SSW) 934 4.5 -21.9°
